Voltar ao catálogo

BREEZE-M DEB

AtivoHEO
NORAD 38625·DEBRIS·🇷🇺 Russia

Lançado Mar 14, 2008 de Baikonur Cosmodrome

Loading…

Próximas Passagens (próximas 24 horas)

TLE

EnvelhecendoSource: Space-Track

Época: Aug 27, 2026, 22:42 UTC

1 38625U 08011BY  26239.94594326  .00054604  00000-0  22411-1 0  9998
2 38625  49.1912  35.4077 6366409 159.3141 247.1439  3.47580066175525

Acompanhe BREEZE-M DEB em tempo real com AllMySat

Download on the App Store